sat.trackr.live / text

‹ back to catalog

STARLINK-1665

NORAD 46356 · 2020-062AH

PAYLOAD ACTIVE UNKNOWN

§ Identity

Operator
Country
US
Launch date
2020-09-03
Launch site
AFETR
Launch vehicle
Mass (kg)
RCS (m²)

Purposes: comms

External: N2YO · Heavens-Above · Gunter

§ Orbital elements

Epoch: 2026-05-25T00:00:02.000160Z

Period
90.98 min
Inclination
53.0385°
Eccentricity
0.0005458
Mean motion
15.82683150 rev/d
Perigee alt
319.2 km
Apogee alt
326.5 km
Semi-major
6,701.0 km
B*
9.3835e-4
RAAN
317.9751°
Arg perigee
220.5237°
Mean anomaly
338.9055°
Rev number
600

§ Raw data

STARLINK-16651 46356U 20062AH  26145.00002315  .00205774  00000+0  93835-3 0  99982 46356  53.0385 317.9751 0005458 220.5237 338.9055 15.82683150  6004

JSON: /api/v1/satellites/46356 · /tle

For live sub-satellite position, see the globe view (requires WebGL).

§ Visibility from observer

Set your observer location to see the next 7 days of passes ≥ 10°. The values pass through the URL so the page stays shareable.

No JS? Fill the form by hand. The geolocation button needs JavaScript.